Weather History for Deadhorse, AK

Change the Weather History Date:

Friday, September 21, 2012

  Actual Average Record
Temperature  
Mean Temperature 40 °F -  
Max Temperature 45 °F 33 °F 45 °F (2012)
Min Temperature 35 °F 25 °F 18 °F (1992)
Degree Days  
Heating Degree Days 24    
Moisture  
Dew Point 40 °F    
Average Humidity 94    
Maximum Humidity 100    
Minimum Humidity 85    
Precipitation  
Precipitation 0.30 in - - ()
Sea Level Pressure  
Sea Level Pressure 29.78 in    
Wind  
Wind Speed 4 mph (WNW)    
Max Wind Speed 13 mph    
Max Gust Speed -    
Visibility 9 miles    
Events Rain    
Averages and records for this station are not official NWS values.
T = Trace of Precipitation, MM = Missing Value Source: NWS Daily Summary

Daily Weather History Graph

Daily Weather History Graph

Search for Another Location

Airport:

Trip Planner

Search our weather history database for the weather conditions in past years. The results will help you decide how hot, cold, wet, or windy it might be!

Date:

Astronomy

Sep. 21, 2012 Rise Set
Actual Time 7:32 AM AKDT 7:58 PM AKDT
Civil Twilight 6:30 AM AKDT 9:00 PM AKDT
Nautical Twilight 5:09 AM AKDT 10:19 PM AKDT
Astronomical Twilight 3:10 AM AKDT 12:12 AM AKDT
Moon No Moon Rise No Moon Set
Length of Visible Light 14h 30m
Length of Day
12h 25m
Waxing Crescent, 39% of the Moon is Illuminated
Sep 21
Waxing Crescent
Sep 22
First Quarter
Sep 29
Full
Oct 7
Last Quarter
Oct 15
New

Hourly Weather History & Observations

Time (AKDT) Temp. Windchill Dew Point Humidity Pressure Visibility Wind Dir Wind Speed Gust Speed Precip Events Conditions
12:53 AM 37.0 °F - 35.1 °F 93% 29.71 in 10.0 mi Calm Calm - N/A   Overcast
1:53 AM 37.9 °F - 36.0 °F 93% 29.71 in 10.0 mi Calm Calm - N/A   Mostly Cloudy
2:53 AM 36.0 °F - 35.1 °F 97% 29.70 in 10.0 mi Calm Calm - N/A   Scattered Clouds
3:53 AM 39.0 °F 35.7 °F 36.0 °F 89% 29.70 in 10.0 mi North 4.6 mph - N/A   Mostly Cloudy
4:53 AM 39.0 °F 36.8 °F 37.0 °F 93% 29.68 in 10.0 mi NE 3.5 mph - N/A   Scattered Clouds
5:53 AM 39.9 °F 35.8 °F 37.0 °F 89% 29.66 in 10.0 mi NNE 5.8 mph - N/A   Mostly Cloudy
6:53 AM 42.1 °F 36.6 °F 37.9 °F 85% 29.65 in 10.0 mi NNE 9.2 mph - N/A   Overcast
7:53 AM 42.1 °F 35.7 °F 37.9 °F 85% 29.66 in 10.0 mi NE 11.5 mph - N/A   Overcast
8:53 AM 42.1 °F 35.2 °F 39.0 °F 89% 29.66 in 6.0 mi ENE 12.7 mph - 0.00 in Rain Light Rain
9:53 AM 43.0 °F 36.8 °F 39.9 °F 89% 29.67 in 5.0 mi NE 11.5 mph - 0.06 in Rain Rain
10:53 AM 42.1 °F 38.4 °F 39.9 °F 92% 29.68 in 6.0 mi ENE 5.8 mph - 0.05 in Rain Rain
11:53 AM 42.1 °F - 41.0 °F 96% 29.70 in 5.0 mi Calm Calm - 0.06 in Rain Rain
12:53 PM 43.0 °F 40.3 °F 41.0 °F 93% 29.73 in 10.0 mi NNW 4.6 mph - 0.05 in Rain Light Rain
1:39 PM 42.8 °F 39.3 °F 42.8 °F 100% 29.76 in 10.0 mi WNW 5.8 mph - 0.01 in Rain Light Rain
1:53 PM 43.0 °F 38.8 °F 42.1 °F 97% 29.78 in 10.0 mi WNW 6.9 mph - 0.01 in Rain Light Rain
2:12 PM 42.8 °F 39.3 °F 42.8 °F 100% 29.78 in 8.0 mi West 5.8 mph - 0.01 in Rain Light Rain
2:33 PM 42.8 °F 41.1 °F 42.8 °F 100% 29.80 in 7.0 mi West 3.5 mph - 0.03 in Rain Light Rain
2:53 PM 43.0 °F 40.3 °F 42.1 °F 97% 29.81 in 9.0 mi West 4.6 mph - 0.03 in Rain Light Rain
3:42 PM 44.6 °F 41.4 °F 42.8 °F 93% 29.84 in 10.0 mi WSW 5.8 mph - 0.02 in Rain Light Rain
3:49 PM 44.6 °F 41.4 °F 42.8 °F 93% 29.84 in 10.0 mi WSW 5.8 mph - 0.02 in Rain Light Rain
3:53 PM 44.1 °F 40.8 °F 43.0 °F 96% 29.84 in 10.0 mi WSW 5.8 mph - 0.02 in Rain Light Rain
4:00 PM 44.6 °F 42.2 °F 42.8 °F 93% 29.84 in 10.0 mi WSW 4.6 mph - 0.00 in Rain Light Rain
4:53 PM 44.1 °F 40.8 °F 43.0 °F 96% 29.86 in 10.0 mi SW 5.8 mph - 0.02 in Rain Light Rain
5:06 PM 44.6 °F 40.7 °F 42.8 °F 93% 29.85 in 10.0 mi WSW 6.9 mph - 0.00 in Rain Light Rain
5:53 PM 45.0 °F 42.6 °F 42.1 °F 90% 29.86 in 10.0 mi SW 4.6 mph - 0.00 in   Overcast
6:53 PM 44.1 °F - 41.0 °F 89% 29.86 in 10.0 mi Calm Calm - N/A   Mostly Cloudy
7:53 PM 41.0 °F 38.0 °F 39.9 °F 96% 29.88 in 10.0 mi South 4.6 mph - N/A   Mostly Cloudy
8:53 PM 39.0 °F 35.7 °F 39.0 °F 100% 29.90 in 10.0 mi SE 4.6 mph - N/A   Overcast
9:53 PM 39.9 °F 36.7 °F 39.0 °F 97% 29.92 in 10.0 mi SSE 4.6 mph - N/A   Mostly Cloudy
10:53 PM 37.9 °F 35.5 °F 37.0 °F 97% 29.91 in 10.0 mi SE 3.5 mph - N/A   Mostly Cloudy
11:53 PM 35.1 °F 28.6 °F 34.0 °F 96% 29.90 in 10.0 mi ESE 8.1 mph - N/A   Clear